E22ZMG-1 Weather Reports


Display with metric or nautical units.
time (UTC)temp
F
wind
direction
speed
MPH
gust
MPH
rain 1hr
in
rain 24hr
in
rain mn
in
humidity
%
barometer
mb
20260507053447 108 0 0.0 0.0 0.00 0.00 0.00 33 973.0
20260507052420 107 0 0.0 0.0 0.00 0.00 0.00 35 973.0
20260507051354 106 0 0.0 0.0 0.00 0.00 0.00 36 973.0
20260507050328 107 0 0.0 0.0 0.00 0.00 0.00 35 973.0
20260507045301 105 0 0.0 0.0 0.00 0.00 0.00 37 973.0
20260507044234 105 0 0.0 0.0 0.00 0.00 0.00 38 974.0
20260507043206 104 0 0.0 0.0 0.00 0.00 0.00 39 974.0
20260507042140 104 0 0.0 0.0 0.00 0.00 0.00 38 974.0
20260507041114 104 0 0.0 0.0 0.00 0.00 0.00 38 974.0
20260507040049 103 0 0.0 0.0 0.00 0.00 0.00 39 974.0
20260507035020 102 0 0.0 0.0 0.00 0.00 0.00 40 974.0
20260507033956 104 0 0.0 0.0 0.00 0.00 0.00 39 974.0
20260507032931 101 0 0.0 0.0 0.00 0.00 0.00 42 974.0
20260507031906 101 0 0.0 0.0 0.00 0.00 0.00 42 974.0
20260507030841 100 0 0.0 0.0 0.00 0.00 0.00 43 975.0
20260507025816 100 0 0.0 0.0 0.00 0.00 0.00 44 975.0
20260507024751 100 0 0.0 0.0 0.00 0.00 0.00 44 975.0
20260507023725 98 0 0.0 0.0 0.00 0.00 0.00 46 975.0
20260507022700 97 0 0.0 0.0 0.00 0.00 0.00 48 975.0
20260507021633 97 0 0.0 0.0 0.00 0.00 0.00 48 975.0
20260507020606 95 0 0.0 0.0 0.00 0.00 0.00 50 975.0
20260507015539 96 0 0.0 0.0 0.00 0.00 0.00 49 975.0
20260507014515 95 0 0.0 0.0 0.00 0.00 0.00 50 975.0
20260507013449 95 0 0.0 0.0 0.00 0.00 0.00 51 975.0
20260507012423 93 0 0.0 0.0 0.00 0.00 0.00 54 975.0
20260507011357 90 0 0.0 0.0 0.00 0.00 0.00 58 975.0
20260507010331 89 0 0.0 0.0 0.00 0.00 0.00 60 975.0
20260507005306 91 0 0.0 0.0 0.00 0.00 0.00 59 975.0
20260507004240 90 0 0.0 0.0 0.00 0.00 0.00 60 975.0
20260507003214 89 0 0.0 0.0 0.00 0.00 0.00 62 975.0
20260507002148 87 0 0.0 0.0 0.00 0.00 0.00 65 975.0
20260507001412 88 0 0.0 0.0 0.00 0.00 0.00 62 975.0
20260507000346 88 0 0.0 0.0 0.00 0.00 0.00 63 975.0
20260506235322 88 0 0.0 0.0 0.00 0.00 0.00 64 975.0
20260506234255 88 0 0.0 0.0 0.00 0.00 0.00 64 975.0
20260506232619 88 0 0.0 0.0 0.00 0.00 0.00 64 975.0
20260506230604 90 0 0.0 0.0 0.00 0.00 0.00 60 974.0
20260506225537 90 0 0.0 0.0 0.00 0.00 0.00 60 974.0
20260506224512 90 0 0.0 0.0 0.00 0.00 0.00 59 974.0
20260506223447 90 0 0.0 0.0 0.00 0.00 0.00 60 974.0
20260506222422 90 0 0.0 0.0 0.00 0.00 0.00 60 974.0
20260506221356 90 0 0.0 0.0 0.00 0.00 0.00 60 974.0
20260506220331 89 0 0.0 0.0 0.00 0.00 0.00 60 974.0
20260506215307 89 0 0.0 0.0 0.00 0.00 0.00 61 974.0
20260506214241 89 0 0.0 0.0 0.00 0.00 0.00 61 974.0
20260506213216 91 0 0.0 0.0 0.00 0.00 0.00 59 974.0
20260506212150 90 0 0.0 0.0 0.00 0.00 0.00 60 974.0
20260506211125 90 0 0.0 0.0 0.00 0.00 0.00 59 974.0
20260506210101 90 0 0.0 0.0 0.00 0.00 0.00 60 973.0
20260506205036 90 0 0.0 0.0 0.00 0.00 0.00 59 973.0
20260506204011 89 0 0.0 0.0 0.00 0.00 0.00 61 973.0
20260506202946 89 0 0.0 0.0 0.00 0.00 0.00 61 973.0
20260506201920 88 0 0.0 0.0 0.00 0.00 0.00 62 973.0
20260506200856 90 0 0.0 0.0 0.00 0.00 0.00 60 973.0
20260506195830 90 0 0.0 0.0 0.00 0.00 0.00 60 973.0
20260506194805 90 0 0.0 0.0 0.00 0.00 0.00 60 973.0
20260506193740 88 0 0.0 0.0 0.00 0.00 0.00 63 973.0
20260506192715 89 0 0.0 0.0 0.00 0.00 0.00 61 973.0
20260506191648 89 0 0.0 0.0 0.00 0.00 0.00 61 973.0
20260506190251 90 0 0.0 0.0 0.00 0.00 0.00 57 973.0
20260506185226 91 0 0.0 0.0 0.00 0.00 0.00 56 973.0
20260506184201 90 0 0.0 0.0 0.00 0.00 0.00 57 973.0
20260506183135 91 0 0.0 0.0 0.00 0.00 0.00 55 973.0
20260506182110 92 0 0.0 0.0 0.00 0.00 0.00 53 973.0
20260506181045 93 0 0.0 0.0 0.00 0.00 0.00 52 973.0
20260506180020 93 0 0.0 0.0 0.00 0.00 0.00 51 973.0
20260506174954 94 0 0.0 0.0 0.00 0.00 0.00 50 974.0
20260506173929 94 0 0.0 0.0 0.00 0.00 0.00 50 974.0
20260506172904 94 0 0.0 0.0 0.00 0.00 0.00 50 974.0
20260506171839 94 0 0.0 0.0 0.00 0.00 0.00 49 974.0
20260506170815 94 0 0.0 0.0 0.00 0.00 0.00 49 974.0
20260506165750 94 0 0.0 0.0 0.00 0.00 0.00 49 974.0
20260506164715 94 0 0.0 0.0 0.00 0.00 0.00 49 974.0
20260506162752 95 0 0.0 0.0 0.00 0.00 0.00 47 974.0
20260506161725 95 0 0.0 0.0 0.00 0.00 0.00 47 974.0
20260506160659 95 0 0.0 0.0 0.00 0.00 0.00 48 974.0
20260506160519 95 0 0.0 0.0 0.00 0.00 0.00 47 974.0
20260506155454 95 0 0.0 0.0 0.00 0.00 0.00 46 974.0
20260506154428 95 0 0.0 0.0 0.00 0.00 0.00 46 974.0
20260506153403 96 0 0.0 0.0 0.00 0.00 0.00 46 974.0
20260506152338 96 0 0.0 0.0 0.00 0.00 0.00 45 973.0
20260506151312 97 0 0.0 0.0 0.00 0.00 0.00 45 974.0
20260506150246 96 0 0.0 0.0 0.00 0.00 0.00 45 974.0
20260506145221 95 0 0.0 0.0 0.00 0.00 0.00 47 973.0
20260506144156 95 0 0.0 0.0 0.00 0.00 0.00 48 973.0
20260506143131 95 0 0.0 0.0 0.00 0.00 0.00 50 973.0
20260506142106 96 0 0.0 0.0 0.00 0.00 0.00 50 973.0
20260506141039 96 0 0.0 0.0 0.00 0.00 0.00 49 973.0
20260506140015 97 0 0.0 0.0 0.00 0.00 0.00 46 973.0
20260506134950 99 0 0.0 0.0 0.00 0.00 0.00 42 972.0
20260506133924 99 0 0.0 0.0 0.00 0.00 0.00 42 972.0
20260506132900 99 0 0.0 0.0 0.00 0.00 0.00 42 971.0
20260506131835 99 0 0.0 0.0 0.00 0.00 0.00 43 971.0
20260506130809 100 0 0.0 0.0 0.00 0.00 0.00 41 971.0
20260506125744 100 0 0.0 0.0 0.00 0.00 0.00 41 971.0
20260506124719 101 0 0.0 0.0 0.00 0.00 0.00 40 971.0
20260506123653 100 0 0.0 0.0 0.00 0.00 0.00 41 971.0
20260506122628 101 0 0.0 0.0 0.00 0.00 0.00 42 971.0
20260506121603 101 0 0.0 0.0 0.00 0.00 0.00 44 971.0
20260506120538 102 0 0.0 0.0 0.00 0.00 0.00 42 971.0
20260506115513 102 0 0.0 0.0 0.00 0.00 0.00 43 971.0
20260506114447 103 0 0.0 0.0 0.00 0.00 0.00 42 970.0
20260506113421 102 0 0.0 0.0 0.00 0.00 0.00 42 970.0
20260506112356 103 0 0.0 0.0 0.00 0.00 0.00 41 970.0
20260506111332 103 0 0.0 0.0 0.00 0.00 0.00 41 970.0
20260506110307 102 0 0.0 0.0 0.00 0.00 0.00 41 970.0
20260506105242 104 0 0.0 0.0 0.00 0.00 0.00 41 970.0
20260506104217 103 0 0.0 0.0 0.00 0.00 0.00 41 970.0
20260506103151 103 0 0.0 0.0 0.00 0.00 0.00 41 970.0
20260506102126 102 0 0.0 0.0 0.00 0.00 0.00 41 970.0
20260506101101 102 0 0.0 0.0 0.00 0.00 0.00 41 970.0
20260506100036 101 0 0.0 0.0 0.00 0.00 0.00 42 970.0
20260506095011 100 0 0.0 0.0 0.00 0.00 0.00 43 970.0
20260506093946 98 0 0.0 0.0 0.00 0.00 0.00 47 970.0
20260506092921 100 0 0.0 0.0 0.00 0.00 0.00 44 970.0
20260506091856 101 0 0.0 0.0 0.00 0.00 0.00 43 970.0
20260506090831 100 0 0.0 0.0 0.00 0.00 0.00 45 970.0
20260506085805 100 0 0.0 0.0 0.00 0.00 0.00 44 970.0
20260506084740 99 0 0.0 0.0 0.00 0.00 0.00 46 971.0
20260506083715 100 0 0.0 0.0 0.00 0.00 0.00 42 971.0
20260506082650 100 0 0.0 0.0 0.00 0.00 0.00 42 971.0
20260506081626 100 0 0.0 0.0 0.00 0.00 0.00 43 971.0
20260506080602 103 0 0.0 0.0 0.00 0.00 0.00 40 971.0
20260506073445 102 0 0.0 0.0 0.00 0.00 0.00 43 971.0
20260506072419 100 0 0.0 0.0 0.00 0.00 0.00 44 971.0
20260506071354 102 0 0.0 0.0 0.00 0.00 0.00 41 972.0
20260506070329 105 0 0.0 0.0 0.00 0.00 0.00 34 972.0
20260506062149 109 0 0.0 0.0 0.00 0.00 0.00 32 973.0
20260506061124 108 0 0.0 0.0 0.00 0.00 0.00 33 973.0